Stations météo

réclame
Mon MeteoGroup
Cazaux, France (7502): Température de l'air & dewpoint: 17.09.2017 22:00:00 - 23.09.2017 22:00:00 (CEST)Cazaux, France (7502): Vitesse du vent & gusts: 17.09.2017 22:00:00 - 23.09.2017 22:00:00 (CEST)Cazaux, France (7502): Direction du vent: 17.09.2017 22:00:00 - 23.09.2017 22:00:00 (CEST)Cazaux, France (7502): reduced air pressure: 17.09.2017 22:00:00 - 23.09.2017 22:00:00 (CEST)Cazaux, France (7502): visibility: 17.09.2017 22:00:00 - 23.09.2017 22:00:00 (CEST)Cazaux, France (7502): Quantités de précipitations: 17.09.2017 22:00:00 - 23.09.2017 22:00:00 (CEST)
Date & Time tt [°C] td [°C] ff [km/h] ff [knt] fx [km/h] fx [knt] dd ppp [hPa] vv [km] rr [mm]
23.09.2017 22:00:00 - - - - - - - - - -
23.09.2017 21:00:00 20,2 14,6 5 3 11 6 NE 1018,0 10 0,0
23.09.2017 20:00:00 21,6 14,7 4 2 5 3 WNW 1017,8 10 -
23.09.2017 19:00:00 25,1 14,8 5 3 13 7 - 1017,5 10 0,0
23.09.2017 18:00:00 25,9 15,3 9 5 18 10 WSW 1017,3 10 0,0
23.09.2017 17:00:00 26,8 13,9 8 4 21 11 WSW 1017,4 10 -
23.09.2017 16:00:00 26,6 13,7 11 6 21 11 SSE 1017,7 10 0,0
23.09.2017 15:00:00 26,0 13,8 11 6 22 12 ESE 1018,3 10 0,0
23.09.2017 14:00:00 24,7 14,2 13 7 22 12 SSE 1018,7 10 -
23.09.2017 13:00:00 22,7 15,3 13 7 24 13 ESE 1019,2 10 0,0
23.09.2017 12:00:00 21,5 14,6 15 8 22 12 SE 1019,6 10 0,0
23.09.2017 11:00:00 18,1 15,0 11 6 18 10 ESE 1019,8 55 -
23.09.2017 10:00:00 14,5 13,9 5 3 9 5 - 1019,7 10 0,0
23.09.2017 09:00:00 11,4 10,9 2 1 8 4 - 1019,9 10 0,0
23.09.2017 08:00:00 10,1 9,5 8 4 9 5 E 1020,0 3,0 -
23.09.2017 07:00:00 11,1 10,5 8 4 11 6 ENE 1020,2 0,8 0,2
23.09.2017 06:00:00 11,8 11,0 8 4 11 6 ENE 1020,5 7 0,0
23.09.2017 05:00:00 12,1 11,3 5 3 8 4 ENE 1020,8 10 -
23.09.2017 04:00:00 11,7 10,8 5 3 9 5 E 1021,3 10 0,0
23.09.2017 03:00:00 11,8 10,7 4 2 9 5 ENE 1022,0 10 0,0
23.09.2017 02:00:00 12,8 11,9 8 4 13 7 NNE 1022,4 10 -
23.09.2017 01:00:00 13,5 12,4 11 6 15 8 NNE 1022,4 10 0,0
23.09.2017 00:00:00 13,9 12,6 9 5 13 7 N 1022,6 10 0,0
22.09.2017 23:00:00 14,3 13,0 8 4 11 6 NNE 1022,6 40 -
22.09.2017 22:00:00 14,8 13,3 9 5 15 8 N 1022,6 10 0,0
22.09.2017 21:00:00 15,7 13,7 9 5 15 8 NNW 1022,5 10 0,0
22.09.2017 20:00:00 16,8 13,7 11 6 16 9 NNW 1022,2 10 -
22.09.2017 19:00:00 18,5 13,4 11 6 16 9 NW 1022,0 10 0,0
22.09.2017 18:00:00 20,2 13,6 5 3 15 8 NNW 1021,8 10 0,0
22.09.2017 17:00:00 20,7 13,2 8 4 18 10 NW 1022,0 10 -
22.09.2017 16:00:00 20,1 13,3 11 6 18 10 NW 1022,3 10 0,0
22.09.2017 15:00:00 19,8 12,5 11 6 24 13 NNW 1022,6 10 0,0
22.09.2017 14:00:00 19,9 12,9 11 6 16 9 WNW 1022,6 60 -
22.09.2017 13:00:00 18,7 13,3 11 6 21 11 NNW 1023,0 10 0,0
22.09.2017 12:00:00 18,0 13,5 8 4 11 6 N 1022,9 10 0,0
22.09.2017 11:00:00 17,3 14,0 5 3 9 5 - 1022,5 10 -
22.09.2017 10:00:00 15,9 14,4 0 0 5 3 N 1022,3 10 0,0
22.09.2017 09:00:00 15,5 14,2 0 0 5 3 N 1022,0 10 0,0
22.09.2017 08:00:00 15,2 14,2 4 2 5 3 ENE 1021,6 10 -
22.09.2017 07:00:00 15,4 14,3 4 2 8 4 ENE 1021,1 10 0,0
22.09.2017 06:00:00 15,8 14,5 0 0 11 6 N 1021,1 10 0,0
22.09.2017 05:00:00 16,1 15,0 5 3 8 4 NNE 1021,3 9 -
22.09.2017 04:00:00 15,7 14,6 5 3 8 4 N 1021,3 10 0,0
22.09.2017 03:00:00 14,1 12,8 4 2 5 3 NNW 1021,3 10 0,0
22.09.2017 02:00:00 13,6 12,5 0 0 4 2 N 1021,1 10 -
22.09.2017 01:00:00 12,6 11,0 0 0 4 2 N 1020,9 10 0,0
22.09.2017 00:00:00 13,1 11,8 0 0 4 2 N 1020,6 10 0,0
21.09.2017 23:00:00 13,3 11,4 0 0 4 2 N 1020,3 10 -
21.09.2017 22:00:00 14,5 11,5 0 0 5 3 N 1020,1 10 0,0
21.09.2017 21:00:00 16,4 12,2 5 3 11 6 N 1019,6 10 0,0
21.09.2017 20:00:00 17,3 11,6 5 3 15 8 NNW 1019,1 60 -
21.09.2017 19:00:00 19,2 12,9 9 5 24 13 NNW 1018,3 10 0,0
21.09.2017 18:00:00 20,3 12,8 16 9 22 12 NW 1017,8 10 0,0
21.09.2017 17:00:00 21,0 12,4 15 8 22 12 WNW 1017,5 55 -
21.09.2017 16:00:00 22,6 12,8 13 7 21 11 W 1017,0 10 0,0
21.09.2017 15:00:00 23,2 11,6 9 5 15 8 SW 1017,0 10 0,0
21.09.2017 14:00:00 22,3 11,7 8 4 15 8 WSW 1017,2 10 -
21.09.2017 13:00:00 20,6 12,0 9 5 16 9 SW 1017,5 10 0,0
21.09.2017 12:00:00 20,1 10,8 4 2 11 6 - 1017,4 10 0,0
21.09.2017 11:00:00 16,9 9,8 8 4 11 6 SE 1017,5 55 -
21.09.2017 10:00:00 13,1 9,0 4 2 8 4 - 1017,6 10 0,0
21.09.2017 09:00:00 9,0 7,8 2 1 4 2 - 1017,3 10 0,0
21.09.2017 08:00:00 6,8 5,6 2 1 4 2 - 1017,1 10 -
21.09.2017 07:00:00 7,4 6,0 4 2 5 3 NNE 1016,9 60 0,0
21.09.2017 06:00:00 7,8 5,9 0 0 4 2 N 1017,1 10 0,0
21.09.2017 05:00:00 9,4 7,0 4 2 5 3 NE 1017,2 10 -
21.09.2017 04:00:00 9,0 7,1 2 1 8 4 - 1017,4 10 0,0
21.09.2017 03:00:00 9,9 7,3 4 2 8 4 - 1017,7 10 0,0
21.09.2017 02:00:00 11,7 7,2 5 3 9 5 E 1018,0 10 -
21.09.2017 01:00:00 11,9 7,6 5 3 13 7 ENE 1018,0 10 0,0
21.09.2017 00:00:00 12,2 7,9 8 4 13 7 E 1018,2 10 0,0
20.09.2017 23:00:00 13,2 8,5 8 4 11 6 E 1018,4 60 -
20.09.2017 22:00:00 14,5 8,7 8 4 13 7 E 1018,6 10 0,0
20.09.2017 21:00:00 15,4 8,8 11 6 16 9 E 1018,8 10 0,0
20.09.2017 20:00:00 18,2 9,5 11 6 18 10 E 1018,8 10 -
20.09.2017 19:00:00 21,2 9,1 13 7 21 11 E 1019,1 10 0,0
20.09.2017 18:00:00 22,1 8,9 8 4 24 13 ESE 1019,4 10 0,0
20.09.2017 17:00:00 22,2 8,7 11 6 26 14 ESE 1019,9 10 -
20.09.2017 16:00:00 22,1 8,6 11 6 24 13 E 1020,4 10 0,0
20.09.2017 15:00:00 21,2 8,8 13 7 24 13 ESE 1021,1 10 0,0
20.09.2017 14:00:00 20,5 8,5 15 8 24 13 ESE 1021,6 55 -
20.09.2017 13:00:00 19,1 8,4 15 8 24 13 ESE 1022,2 10 0,0
20.09.2017 12:00:00 17,8 10,2 13 7 21 11 SE 1023,1 10 0,0
20.09.2017 11:00:00 16,1 10,8 8 4 13 7 SSE 1023,5 10 -
20.09.2017 10:00:00 12,0 9,9 4 2 8 4 - 1023,6 10 0,0
20.09.2017 09:00:00 7,6 6,8 0 0 5 3 N 1023,9 45 0,0
20.09.2017 08:00:00 5,6 4,9 0 0 4 2 N 1024,0 10 -
20.09.2017 07:00:00 5,7 4,8 0 0 2 1 N 1023,9 10 0,2
20.09.2017 06:00:00 5,7 4,7 0 0 2 1 N 1024,1 10 0,0
20.09.2017 05:00:00 5,5 4,3 0 0 4 2 N 1024,5 10 -
20.09.2017 04:00:00 6,9 5,8 0 0 4 2 N 1024,8 10 0,0
20.09.2017 03:00:00 7,8 7,0 0 0 4 2 N 1024,9 10 0,0
20.09.2017 02:00:00 7,9 6,8 2 1 4 2 N 1025,1 10 -
20.09.2017 01:00:00 8,8 7,7 0 0 5 3 N 1025,3 10 0,0
20.09.2017 00:00:00 9,3 8,1 0 0 4 2 N 1025,7 10 0,0
19.09.2017 23:00:00 9,7 8,1 0 0 2 1 N 1025,8 10 -
19.09.2017 22:00:00 10,6 7,8 0 0 5 3 N 1025,8 10 0,0
19.09.2017 21:00:00 12,6 8,9 4 2 9 5 NW 1025,6 10 0,0
19.09.2017 20:00:00 14,1 8,9 8 4 15 8 NNW 1025,2 60 -
19.09.2017 19:00:00 16,1 9,5 11 6 24 13 N 1024,9 10 0,0
19.09.2017 18:00:00 17,2 9,1 16 9 31 17 NNW 1024,8 10 0,0
19.09.2017 17:00:00 17,9 8,5 21 11 34 18 N 1024,9 10 -
19.09.2017 16:00:00 18,4 9,5 18 10 34 18 NNW 1024,9 10 0,0
19.09.2017 15:00:00 18,2 10,3 22 12 37 20 NNW 1025,1 10 0,0
19.09.2017 14:00:00 18,8 11,1 21 11 37 20 NNW 1025,2 55 -
19.09.2017 13:00:00 18,6 11,7 21 11 34 18 NNW 1025,0 10 0,2
19.09.2017 12:00:00 17,7 11,0 15 8 28 15 WNW 1025,1 10 0,0
19.09.2017 11:00:00 17,1 9,8 15 8 24 13 WNW 1024,9 10 -
19.09.2017 10:00:00 16,2 10,9 5 3 11 6 NW 1024,4 10 0,0
19.09.2017 09:00:00 10,0 9,2 0 0 4 2 N 1024,2 60 0,0
19.09.2017 08:00:00 7,1 6,2 0 0 2 1 N 1024,0 10 -
19.09.2017 07:00:00 8,1 7,2 0 0 2 1 N 1023,7 10 0,0
19.09.2017 06:00:00 8,7 7,9 0 0 2 1 N 1023,6 10 0,0
19.09.2017 05:00:00 7,7 6,8 0 0 4 2 N 1023,5 60 -
19.09.2017 04:00:00 8,0 7,1 2 1 4 2 ESE 1023,8 10 0,0
19.09.2017 03:00:00 9,2 8,3 0 0 4 2 N 1023,9 10 0,0
19.09.2017 02:00:00 8,8 7,6 0 0 4 2 N 1023,6 10 -
19.09.2017 01:00:00 10,0 8,9 0 0 5 3 N 1023,7 10 0,0
19.09.2017 00:00:00 10,1 8,4 4 2 5 3 WNW 1023,8 10 0,0
18.09.2017 23:00:00 11,3 9,0 5 3 9 5 NNW 1023,4 10 -
18.09.2017 22:00:00 12,7 9,5 4 2 11 6 NNW 1022,9 10 0,0
18.09.2017 21:00:00 13,2 9,4 8 4 13 7 NNW 1022,5 10 0,0
18.09.2017 20:00:00 14,7 9,7 9 5 24 13 NNW 1021,7 19 -
18.09.2017 19:00:00 16,8 10,2 15 8 28 15 NNW 1020,9 10 0,0
18.09.2017 18:00:00 17,6 10,2 18 10 31 17 NNW 1020,4 10 0,0
18.09.2017 17:00:00 18,2 10,3 16 9 29 16 NNW 1020,1 50 -
18.09.2017 16:00:00 18,6 10,4 18 10 29 16 NW 1019,7 10 0,0
18.09.2017 15:00:00 18,8 10,9 16 9 28 15 NW 1019,5 10 0,0
18.09.2017 14:00:00 18,2 11,5 11 6 26 14 NW 1019,3 10 -
18.09.2017 13:00:00 17,4 11,7 9 5 18 10 N 1019,3 10 0,0
18.09.2017 12:00:00 17,1 13,0 9 5 15 8 N 1018,9 10 0,0
18.09.2017 11:00:00 15,4 12,7 9 5 15 8 NNE 1018,5 55 -
18.09.2017 10:00:00 13,6 12,7 5 3 8 4 ENE 1018,0 10 0,0
18.09.2017 09:00:00 13,2 12,6 0 0 4 2 N 1017,5 10 0,0
18.09.2017 08:00:00 12,9 12,1 2 1 4 2 N 1017,0 10 -
18.09.2017 07:00:00 12,8 11,9 0 0 9 5 N 1016,7 10 0,0
18.09.2017 06:00:00 13,2 12,4 8 4 13 7 NW 1016,7 4,4 0,0
18.09.2017 05:00:00 13,5 12,6 2 1 13 7 W 1016,7 55 -
18.09.2017 04:00:00 13,4 12,8 4 2 8 4 - 1016,9 10 0,0
18.09.2017 03:00:00 13,5 12,9 0 0 8 4 N 1017,3 10 0,2
18.09.2017 02:00:00 13,6 13,0 4 2 9 5 ESE 1017,5 10 -
18.09.2017 01:00:00 13,9 12,9 8 4 8 4 ESE 1017,8 10 0,0
18.09.2017 00:00:00 14,2 13,1 4 2 18 10 - 1018,2 4,1 0,2
17.09.2017 23:00:00 15,2 13,0 13 7 18 10 WSW 1017,8 45 -
17.09.2017 22:00:00 14,7 12,6 8 4 11 6 WSW 1017,9 10 0,2

tt = Température de l'air
td = dewpoint
ff = Vitesse du vent
fx = gusts
dd = Direction du vent
ppp = reduced air pressure
vv = visibility
rr = Quantités de précipitations

stations d'obs. à proximité